Bryce Canyon, UT

3:03 PM MDT on September 23, 2017 (GMT -0600)
Bryce Canyon

Weather History for KBCE - October, 2013

Change the Weather History Date:

Wednesday, October 9, 2013

  Actual Average Record
Temperature  
Mean Temperature 44 °F -  
Max Temperature 55 °F 61 °F 77 °F (1996)
Min Temperature 34 °F 28 °F 19 °F (1990)
Degree Days  
Heating Degree Days 21    
Moisture  
Dew Point 25 °F    
Average Humidity 47    
Maximum Humidity 79    
Minimum Humidity 30    
Precipitation  
Precipitation 0.00 in - - ()
Sea Level Pressure  
Sea Level Pressure 29.64 in    
Wind  
Wind Speed 11 mph (SSE)    
Max Wind Speed 26 mph    
Max Gust Speed 38 mph    
Visibility 10 miles    
Events Rain    
Averages and records for this station are not official NWS values.
T = Trace of Precipitation, MM = Missing Value Source: NWS Daily Summary

Daily Weather History Graph

Daily Weather History Graph

Search for Another Location

Airport or City:

Trip Planner

Search our weather history database for the weather conditions in past years. The results will help you decide how hot, cold, wet, or windy it might be!

Date:

Astronomy

Oct. 09, 2013 Rise Set
Actual Time 7:31 AM MDT 6:59 PM MDT
Civil Twilight 7:05 AM MDT 7:25 PM MDT
Nautical Twilight 6:34 AM MDT 7:55 PM MDT
Astronomical Twilight 6:04 AM MDT 8:26 PM MDT
Moon 12:26 PM MDT (10/9) 10:42 PM MDT (10/9)
Length of Visible Light 12h 20m
Length of Day
11h 27m
Waxing Crescent, 26% of the Moon is Illuminated
Oct 9
Waxing Crescent
Oct 11
First Quarter
Oct 18
Full
Oct 26
Last Quarter
Nov 3
New

Hourly Weather History & Observations

Time (MDT) Temp. Windchill Dew Point Humidity Pressure Visibility Wind Dir Wind Speed Gust Speed Precip Events Conditions
12:53 AM 34.0 °F 31.0 °F 21.9 °F 61% 29.70 in 10.0 mi WSW 3.5 mph - N/A   Clear
1:53 AM 35.1 °F 31.0 °F 21.9 °F 59% 29.68 in 10.0 mi West 4.6 mph - N/A   Scattered Clouds
2:53 AM 34.0 °F - 21.9 °F 61% 29.67 in 10.0 mi Calm Calm - N/A   Clear
3:53 AM 42.1 °F 37.7 °F 19.0 °F 40% 29.61 in 10.0 mi SE 6.9 mph - N/A   Clear
4:53 AM 41.0 °F 34.3 °F 18.0 °F 40% 29.60 in 10.0 mi SE 11.5 mph - N/A   Clear
5:53 AM 41.0 °F 34.7 °F 19.9 °F 43% 29.61 in 10.0 mi ESE 10.4 mph - N/A   Clear
6:53 AM 39.9 °F 35.1 °F 21.0 °F 47% 29.62 in 10.0 mi SE 6.9 mph - N/A   Mostly Cloudy
7:53 AM 39.0 °F 34.8 °F 24.1 °F 55% 29.65 in 10.0 mi SE 5.8 mph - 0.00 in   Scattered Clouds
8:53 AM 46.9 °F - 25.0 °F 42% 29.65 in 10.0 mi SE 6.9 mph - N/A   Partly Cloudy
9:53 AM 48.9 °F - 28.0 °F 44% 29.64 in 10.0 mi SSE 17.3 mph 25.3 mph N/A   Clear
10:53 AM 51.1 °F - 28.9 °F 43% 29.64 in 10.0 mi SE 23.0 mph 29.9 mph N/A   Clear
11:53 AM 53.1 °F - 26.1 °F 35% 29.65 in 10.0 mi SSE 23.0 mph 32.2 mph N/A   Clear
12:53 PM 52.0 °F - 24.1 °F 34% 29.64 in 10.0 mi SSE 25.3 mph 33.4 mph N/A   Partly Cloudy
1:53 PM 53.1 °F - 23.0 °F 31% 29.61 in 10.0 mi SE 24.2 mph 32.2 mph N/A   Mostly Cloudy
2:53 PM 54.0 °F - 23.0 °F 30% 29.61 in 10.0 mi SSE 20.7 mph 32.2 mph N/A   Mostly Cloudy
3:53 PM 48.0 °F - 27.0 °F 44% 29.62 in 10.0 mi South 26.5 mph 36.8 mph 0.00 in Rain Light Rain
4:53 PM 48.9 °F - 26.1 °F 41% 29.59 in 10.0 mi South 13.8 mph 28.8 mph 0.00 in   Mostly Cloudy
5:53 PM 48.9 °F - 21.9 °F 35% 29.60 in 10.0 mi South 13.8 mph 18.4 mph N/A   Overcast
6:53 PM 48.9 °F - 19.9 °F 32% 29.60 in 10.0 mi South 18.4 mph 34.5 mph N/A   Overcast
7:53 PM 46.0 °F 40.2 °F 25.0 °F 44% 29.62 in 10.0 mi SSW 12.7 mph 25.3 mph 0.00 in   Overcast
8:53 PM 42.1 °F 35.7 °F 30.0 °F 62% 29.62 in 10.0 mi SSW 11.5 mph - 0.00 in   Overcast
9:19 PM 42.8 °F 36.2 °F 30.2 °F 61% 29.85 in 10.0 mi ESE 12.7 mph 20.7 mph 0.00 in   Overcast
9:53 PM 44.1 °F 38.6 °F 25.0 °F 47% 29.57 in 10.0 mi East 10.4 mph 24.2 mph 0.00 in   Overcast
10:53 PM 43.0 °F 33.8 °F 26.1 °F 51% 29.59 in 10.0 mi South 23.0 mph 38.0 mph 0.00 in Rain Light Rain
11:22 PM 41.0 °F 33.5 °F 28.4 °F 61% 29.83 in 10.0 mi ESE 13.8 mph 24.2 mph 0.00 in Rain Light Rain
11:53 PM 37.9 °F 32.7 °F 32.0 °F 79% 29.59 in 10.0 mi East 6.9 mph - 0.00 in Rain Light Rain